• In Slovakia
  • List of Countries
  • For 7 days
  • Water Temperature
  • Satellite Maps
  • Weather Map
  • Weather Widgets
  • user-avatar
    Login

    Hourly Weather Nakhchivan

    Today, 17 January, Wednesday

    Time Temperature Precipitation Wind Pressure Humidity
    00:00 +1°C° 0 mm 1 mps 688 mmHg 73%
    01:00 +1°C° 0 mm 1 mps 688 mmHg 73%
    02:00 +1°C° 0 mm 1 mps 687 mmHg 73%
    03:00 0°C° 0 mm 1 mps 687 mmHg 75%
    04:00 0°C° 0 mm 1 mps 687 mmHg 75%
    05:00 -1°C° 0 mm 1 mps 686 mmHg 75%
    06:00 -1°C° 0 mm 1 mps 686 mmHg 74%
    07:00 0°C° 0 mm 1 mps 686 mmHg 71%
    08:00 +1°C° 0 mm 1 mps 686 mmHg 67%
    09:00 +2°C° 0 mm 1 mps 686 mmHg 63%
    10:00 +2°C° 0 mm 1 mps 686 mmHg 61%
    11:00 +3°C° 0 mm 1 mps 686 mmHg 58%
    12:00 +4°C° 0 mm 1 mps 685 mmHg 56%
    13:00 +4°C° 0 mm 1 mps 685 mmHg 55%
    14:00 +5°C° 0 mm 1 mps 684 mmHg 54%
    15:00 +5°C° 0 mm 1 mps 684 mmHg 53%
    16:00 +4°C° 0 mm 1 mps 684 mmHg 56%
    17:00 +3°C° 0 mm 1 mps 684 mmHg 59%
    18:00 +2°C° 0 mm 1 mps 684 mmHg 62%
    19:00 +2°C° 0 mm 1 mps 684 mmHg 62%
    20:00 +2°C° 0 mm 1 mps 684 mmHg 61%
    21:00 +1°C° 0 mm 1 mps 684 mmHg 61%
    22:00 +2°C° 0 mm 1 mps 684 mmHg 61%
    23:00 +2°C° 0 mm 1 mps 684 mmHg 61%

    Tomorrow, 18 January, Thursday

    Time Temperature Precipitation Wind Pressure Humidity
    00:00 +2°C° 0 mm 1 mps 684 mmHg 61%
    01:00 +2°C° 0 mm 1 mps 683 mmHg 63%
    02:00 +2°C° 0 mm 1 mps 683 mmHg 65%
    03:00 +1°C° 0 mm 1 mps 682 mmHg 66%
    04:00 +2°C° 0.2 mm 1 mps 682 mmHg 68%
    05:00 +2°C° 0.2 mm 1 mps 682 mmHg 70%
    06:00 +2°C° 0.2 mm 1 mps 682 mmHg 73%
    07:00 +2°C° 0.1 mm 1 mps 682 mmHg 71%
    08:00 +2°C° 0.1 mm 2 mps 682 mmHg 69%
    09:00 +3°C° 0.1 mm 2 mps 682 mmHg 67%
    10:00 +4°C° 0 mm 2 mps 682 mmHg 64%
    11:00 +4°C° 0 mm 3 mps 681 mmHg 60%
    12:00 +5°C° 0 mm 3 mps 681 mmHg 57%
    13:00 +5°C° 0 mm 3 mps 681 mmHg 55%
    14:00 +7°C° 0 mm 3 mps 680 mmHg 54%
    15:00 +6°C° 0 mm 4 mps 680 mmHg 53%
    16:00 +5°C° 0 mm 3 mps 680 mmHg 56%
    17:00 +4°C° 0 mm 3 mps 680 mmHg 59%
    18:00 +3°C° 0 mm 3 mps 680 mmHg 62%
    19:00 +3°C° 0 mm 3 mps 680 mmHg 63%
    20:00 +3°C° 0 mm 3 mps 680 mmHg 64%
    21:00 +3°C° 0 mm 3 mps 680 mmHg 65%
    22:00 +2°C° 0 mm 3 mps 680 mmHg 67%
    23:00 +2°C° 0 mm 3 mps 679 mmHg 70%

    Day after tomorrow, 19 January, Friday

    Time Temperature Precipitation Wind Pressure Humidity
    00:00 +2°C° 0 mm 3 mps 679 mmHg 72%
    01:00 +2°C° 0 mm 3 mps 679 mmHg 73%
    02:00 +2°C° 0 mm 3 mps 679 mmHg 75%
    03:00 +1°C° 0 mm 3 mps 679 mmHg 77%
    04:00 +1°C° 0 mm 3 mps 678 mmHg 77%
    05:00 +2°C° 0 mm 2 mps 678 mmHg 78%
    06:00 +2°C° 0 mm 2 mps 678 mmHg 78%
    07:00 +3°C° 0 mm 2 mps 678 mmHg 74%
    08:00 +4°C° 0 mm 2 mps 679 mmHg 71%
    09:00 +5°C° 0 mm 2 mps 679 mmHg 68%
    10:00 +5°C° 0 mm 3 mps 679 mmHg 63%
    11:00 +8°C° 0 mm 3 mps 678 mmHg 59%
    12:00 +8°C° 0 mm 4 mps 678 mmHg 55%
    13:00 +8°C° 0 mm 4 mps 678 mmHg 52%
    14:00 +10°C° 0 mm 4 mps 678 mmHg 49%
    15:00 +10°C° 0 mm 4 mps 678 mmHg 47%
    16:00 +8°C° 0 mm 4 mps 678 mmHg 48%
    17:00 +8°C° 0 mm 3 mps 678 mmHg 49%
    18:00 +7°C° 0 mm 3 mps 678 mmHg 51%
    19:00 +7°C° 0.1 mm 3 mps 678 mmHg 53%
    20:00 +7°C° 0.1 mm 2 mps 678 mmHg 54%
    21:00 +6°C° 0.1 mm 2 mps 678 mmHg 56%
    22:00 +6°C° 0.1 mm 2 mps 679 mmHg 60%
    23:00 +6°C° 0.1 mm 2 mps 679 mmHg 63%

    20 January, Saturday

    Time Temperature Precipitation Wind Pressure Humidity
    00:00 +6°C° 0.1 mm 1 mps 679 mmHg 67%
    01:00 +6°C° 0.3 mm 1 mps 680 mmHg 70%
    02:00 +5°C° 0.3 mm 2 mps 680 mmHg 73%
    03:00 +4°C° 0.3 mm 2 mps 681 mmHg 76%
    04:00 +4°C° 0.2 mm 2 mps 681 mmHg 77%
    05:00 +4°C° 0.2 mm 2 mps 682 mmHg 78%
    06:00 +4°C° 0.2 mm 1 mps 683 mmHg 79%
    07:00 +4°C° 0.2 mm 1 mps 684 mmHg 77%
    08:00 +5°C° 0.2 mm 1 mps 684 mmHg 76%
    09:00 +5°C° 0.2 mm 1 mps 685 mmHg 75%
    10:00 +5°C° 0.1 mm 1 mps 685 mmHg 71%
    11:00 +5°C° 0.1 mm 2 mps 686 mmHg 68%
    12:00 +5°C° 0.1 mm 2 mps 686 mmHg 64%
    13:00 +6°C° 0 mm 2 mps 686 mmHg 62%
    14:00 +6°C° 0 mm 2 mps 686 mmHg 59%
    15:00 +6°C° 0 mm 2 mps 686 mmHg 57%
    16:00 +5°C° 0 mm 2 mps 687 mmHg 60%
    17:00 +5°C° 0 mm 1 mps 687 mmHg 63%
    18:00 +4°C° 0 mm 1 mps 688 mmHg 66%
    19:00 +4°C° 0 mm 1 mps 689 mmHg 67%
    20:00 +3°C° 0 mm 1 mps 689 mmHg 67%
    21:00 +3°C° 0 mm 1 mps 690 mmHg 68%
    22:00 +2°C° 0 mm 1 mps 690 mmHg 67%
    23:00 +2°C° 0 mm 1 mps 690 mmHg 66%

    21 January, Sunday

    Time Temperature Precipitation Wind Pressure Humidity
    00:00 +2°C° 0 mm 1 mps 690 mmHg 65%
    01:00 +2°C° 0 mm 1 mps 690 mmHg 64%
    02:00 +1°C° 0 mm 1 mps 690 mmHg 63%
    03:00 +1°C° 0 mm 1 mps 690 mmHg 61%
    04:00 +1°C° 0 mm 1 mps 690 mmHg 61%
    05:00 +1°C° 0 mm 1 mps 690 mmHg 61%
    06:00 +1°C° 0 mm 1 mps 690 mmHg 61%
    07:00 +2°C° 0 mm 1 mps 690 mmHg 58%
    08:00 +3°C° 0 mm 1 mps 690 mmHg 56%
    09:00 +4°C° 0 mm 1 mps 690 mmHg 54%
    10:00 +5°C° 0 mm 1 mps 690 mmHg 52%
    11:00 +6°C° 0 mm 1 mps 689 mmHg 50%
    12:00 +7°C° 0 mm 1 mps 689 mmHg 48%
    13:00 +7°C° 0 mm 1 mps 688 mmHg 48%
    14:00 +7°C° 0 mm 1 mps 688 mmHg 47%
    15:00 +8°C° 0 mm 1 mps 688 mmHg 46%
    16:00 +7°C° 0 mm 1 mps 688 mmHg 48%
    17:00 +5°C° 0 mm 1 mps 688 mmHg 50%
    18:00 +4°C° 0 mm 1 mps 688 mmHg 53%
    19:00 +4°C° 0 mm 1 mps 688 mmHg 51%
    20:00 +4°C° 0 mm 1 mps 688 mmHg 49%
    21:00 +4°C° 0 mm 1 mps 688 mmHg 48%
    22:00 +3°C° 0 mm 1 mps 688 mmHg 47%
    23:00 +3°C° 0 mm 1 mps 688 mmHg 46%

    22 January, Monday

    Time Temperature Precipitation Wind Pressure Humidity
    00:00 +3°C° 0 mm 1 mps 687 mmHg 45%
    01:00 +3°C° 0 mm 1 mps 687 mmHg 45%
    02:00 +3°C° 0 mm 1 mps 687 mmHg 45%
    03:00 +3°C° 0 mm 1 mps 687 mmHg 44%
    04:00 +3°C° 0 mm 1 mps 686 mmHg 44%
    05:00 +3°C° 0 mm 1 mps 686 mmHg 44%
    06:00 +3°C° 0 mm 1 mps 686 mmHg 44%
    07:00 +4°C° 0 mm 1 mps 686 mmHg 43%
    08:00 +5°C° 0 mm 1 mps 686 mmHg 41%
    09:00 +6°C° 0 mm 1 mps 686 mmHg 40%
    10:00 +7°C° 0 mm 1 mps 685 mmHg 40%
    11:00 +7°C° 0 mm 2 mps 685 mmHg 40%
    12:00 +9°C° 0 mm 2 mps 684 mmHg 40%
    13:00 +9°C° 0 mm 2 mps 684 mmHg 39%
    14:00 +9°C° 0 mm 2 mps 683 mmHg 39%
    15:00 +9°C° 0 mm 2 mps 683 mmHg 38%
    16:00 +8°C° 0 mm 2 mps 683 mmHg 40%
    17:00 +6°C° 0 mm 2 mps 683 mmHg 42%
    18:00 +5°C° 0 mm 2 mps 683 mmHg 44%
    19:00 +4°C° 0 mm 2 mps 683 mmHg 44%
    20:00 +4°C° 0 mm 2 mps 683 mmHg 43%
    21:00 +4°C° 0 mm 2 mps 683 mmHg 43%
    22:00 +3°C° 0 mm 2 mps 683 mmHg 42%
    23:00 +3°C° 0 mm 2 mps 683 mmHg 42%
    Show more